Cactus Peak, Santa Catalina Island Weather observations

Data are for 10 minute period ending at time listed.
 Day   Time   Solar   Ave.   Ave.  Ave.  Vector    Max.   Stn.    Total
  of    of     Rad.   Air    Rel.  Wind   Wind     Wind   Baro.  Precip.
Year   Day            Temp.  Hum.  Speed  Dir.     Gust   Pres.         
2014   (PST)   W/m2    F      %     mph   deg.      mph    mb.     in.  
------------------------------------------------------------------------
 234    1:20    0.0    68   79.8     7     74.2     7.8    999.0   0.00  
 234    1:30    0.0    68   79.9     6     64.2     7.2    999.0   0.00  
 234    1:40    0.0    68   80.3     6     57.9     7.2    999.0   0.00  
 234    1:50    0.0    67   81.2     4     37.1     6.0    999.0   0.00  
 234    2:00    0.0    66   82.6     4     59.0     4.8    999.0   0.00  
 234    2:10    0.0    66   82.1     4     56.7     4.8    999.0   0.00  
 234    2:20    0.0    66   82.6     4     35.1     4.8    999.0   0.00  
 234    2:30    0.0    65   85.1     3     47.7     4.8    999.0   0.00  
 234    2:40    0.0    66   84.1     4    120.7     6.0    999.0   0.00  
 234    2:50    0.0    66   84.4     4    114.7     6.0    999.0   0.00  
 234    3:00    0.0    66   84.9     5    108.6     6.6    999.0   0.00  
 234    3:10    0.0    65   85.8     5    125.7     6.6    999.0   0.00  
 234    3:20    0.0    65   86.9     5     84.9     6.0    999.0   0.00  
 234    3:30    0.0    64   85.9     5     25.5     6.0    999.0   0.00  
 234    3:40    0.0    64   87.8     5     27.2     6.6    999.0   0.00  
 234    3:50    0.0    64   88.3     4     72.2     5.4    999.0   0.00  
 234    4:00    0.0    64   87.9     4    153.7     5.4    999.0   0.00  
 234    4:10    0.0    64   88.1     5    161.9     7.8    999.0   0.00  
 234    4:20    0.0    64   88.7     6    165.4     9.0    999.0   0.00  
 234    4:30    0.0    64   89.2     5    159.6     7.2    999.0   0.00  
 234    4:40    0.0    64   89.4     4    161.6     6.6    999.0   0.00  
 234    4:50    0.0    64   89.5     4    165.3     6.6    999.0   0.00  
 234    5:00    0.0    64   89.5     5    158.0     8.4    999.0   0.00  
 234    5:10    0.0    64   89.5     4    159.2     7.8    999.0   0.00  
 234    5:20    0.0    65   89.5     3    172.4     4.8    999.0   0.00  
 234    5:30    0.0    64   89.5     3    164.7     5.4    999.0   0.00  
 234    5:40    6.0    65   89.5     2    153.9     4.2    999.0   0.00  
 234    5:50   12.0    65   89.5     3    164.2     4.2    999.0   0.00  
 234    6:00   20.0    65   89.4     3    153.6     3.6    999.0   0.00  
 234    6:10   24.0    65   89.3     2    166.4     6.0    999.0   0.00  
 234    6:20   27.0    65   89.4     4    164.4     7.2    999.0   0.00  
 234    6:30   38.0    65   89.4     4    173.1     6.0    999.0   0.00  
 234    6:40   45.0    65   89.4     5    182.0     7.2    999.0   0.00  
 234    6:50   70.0    65   89.4     4    171.1     6.6    999.0   0.00  
 234    7:00   72.0    65   89.2     5    166.2     9.6    999.0   0.00  
 234    7:10  112.0    65   89.2     5    166.4     8.4    999.0   0.00  
 234    7:20  103.0    65   89.0     5    166.5     7.8    999.0   0.00  
 234    7:30  201.0    66   88.6     5    169.6     7.8    999.0   0.00  
 234    7:40  195.0    66   87.9     4    166.3     7.8    999.0   0.00  
 234    7:50  262.0    66   86.9     5    167.4     7.2    999.0   0.00  
 234    8:00  235.0    67   85.8     5    168.7     7.2    999.0   0.00  
 234    8:10  224.0    67   85.6     6    174.1     9.0    999.0   0.00  
 234    8:20  193.0    66   85.8     6    175.5     9.0    999.0   0.00  
 234    8:30  224.0    66   86.2     6    183.8     9.6    999.0   0.00  
 234    8:40  207.0    66   85.7     8    181.5    11.3    999.0   0.00  
 234    8:50  478.0    67   85.5     8    171.9    11.9    999.0   0.00  
 234    9:00  260.0    66   85.0     9    179.8    11.9    999.0   0.00  
 234    9:10  686.0    67   84.2     7    172.4    10.8    999.0   0.00  
 234    9:20  652.0    69   81.7     8    173.2    13.1    999.0   0.00  
 234    9:30  652.0    69   81.0     8    170.1    13.1    999.0   0.00  
 234    9:40  536.0    68   81.7    10    188.8    13.7    999.0   0.00  
 234    9:50  753.0    69   81.4     6    175.4    11.3    999.0   0.00  
 234   10:00  770.0    71   77.3     5    178.5    10.2    999.0   0.00  
 234   10:10  789.0    71   77.1     7    168.2    11.9    999.0   0.00  
 234   10:20  810.0    71   76.2     7    199.9    10.8    999.0   0.00  
 234   10:30  804.0    72   75.3     8    201.0    13.1    999.0   0.00  
 234   10:40  824.0    71   76.2    10    192.0    14.3    999.0   0.00  
 234   10:50  857.0    70   76.9     8    210.3    13.1    999.0   0.00  
 234   11:00  866.0    72   74.8     4    201.3    13.1    999.0   0.00  
 234   11:10  876.0    74   71.2     6    354.7    10.8    999.0   0.00  
 234   11:20  886.0    76   68.6     4    331.9     9.6    999.0   0.00  
 234   11:30  894.0    76   68.1     5    310.6    17.3    999.0   0.00  
 234   11:40  900.0    76   67.1     6    340.0    10.8    999.0   0.00  
 234   11:50  903.0    75   69.4     7      1.8    11.3    999.0   0.00  
 234   12:00  905.0    74   69.8     8    342.2    11.9    999.0   0.00  
 234   12:10  905.0    74   70.0     9    337.1    13.1    999.0   0.00  
 234   12:20  906.0    73   71.4    10    346.6    13.7    999.0   0.00  
 234   12:30  902.0    74   70.7     9    337.2    15.5    999.0   0.00  
 234   12:40  899.0    73   70.9     9    347.6    12.5    999.0   0.00  
 234   12:50  894.0    73   71.2    10    338.1    14.9    999.0   0.00  
 234   13:00  886.0    73   70.8    10    341.5    14.3    999.0   0.00  
 234   13:10  876.0    73   71.3     8    329.0    13.7    999.0   0.00  
 234   13:20  865.0    74   69.2     9    338.0    13.1    999.0   0.00  
 234   13:30  851.0    73   70.8    10    345.6    14.9    999.0   0.00  
 234   13:40  838.0    73   70.2    10    339.8    13.1    999.0   0.00  
 234   13:50  824.0    74   69.3    10    340.1    13.7    999.0   0.00  
 234   14:00  807.0    74   68.6     8    343.9    13.1    999.0   0.00  
 234   14:10  788.0    75   68.0     8    347.5    11.3    999.0   0.00  
 234   14:20  767.0    75   66.8     8    338.8    13.7    999.0   0.00  
 234   14:30  745.0    74   67.8     8    345.4    10.8    999.0   0.00  
 234   14:40  723.0    75   67.6     7    343.3     9.6    999.0   0.00  
 234   14:50  697.0    75   66.6     6    349.9     9.6    999.0   0.00  
 234   15:00  672.0    74   68.1     8    339.6    11.3    999.0   0.00  
 234   15:10  646.0    74   68.9     8    334.6    11.3    999.0   0.00  
 234   15:20  617.0    73   70.4     8    341.1    11.3    999.0   0.00  
 234   15:30  589.0    73   70.0     9    338.5    11.3    999.0   0.00  
 234   15:40  559.0    73   69.7     7    347.5    11.3    999.0   0.00  
 234   15:50  528.0    74   69.1     7    346.7    11.3    999.0   0.00  
 234   16:00  497.0    74   68.0     5    317.5     7.8    999.0   0.00  
 234   16:10  466.0    74   68.2     7    323.9     9.6    999.0   0.00  
 234   16:20  433.0    73   69.0     7    324.4    10.8    999.0   0.00  
 234   16:30  400.0    72   71.3     8    333.8    11.9    999.0   0.00  
 234   16:40  367.0    72   70.8     6    325.9     8.4    999.0   0.00  
 234   16:50  333.0    71   72.5     8    331.2    10.8    999.0   0.00  
 234   17:00  299.0    70   74.2     7    333.2    10.8    999.0   0.00  
 234   17:10  265.0    71   72.8     7    328.2    10.8    999.0   0.00  
 234   17:20  231.0    70   75.2     7    320.6    10.8    999.0   0.00  
 234   17:30  197.0    69   76.2     7    333.5    10.2    999.0   0.00  
 234   17:40  164.0    68   78.3     8    336.3    11.3    999.0   0.00  
 234   17:50  132.0    67   80.7     8    342.7    10.8    999.0   0.00  
 234   18:00   99.0    66   81.6     7    336.1     8.4    999.0   0.00  
 234   18:10   63.0    66   81.9     6    334.9     7.8    999.0   0.00  
 234   18:20   36.0    66   80.8     3    330.6     6.0    999.0   0.00  
 234   18:30   13.0    65   82.5     5    336.9     7.8    999.0   0.00  
 234   18:40    6.0    64   85.1     4    335.1     6.0    999.0   0.00  
 234   18:50    0.0    63   86.0     4    328.9     5.4    999.0   0.00  
 234   19:00    0.0    63   86.7     5    341.1     6.6    999.0   0.00  
 234   19:10    0.0    63   87.4     5    347.5     6.6    999.0   0.00  
 234   19:20    0.0    63   87.8     7    350.7     9.6    999.0   0.00  
 234   19:30    0.0    63   88.0     8    342.2    10.2    999.0   0.00  
 234   19:40    0.0    63   88.2     8    340.9    10.2    999.0   0.00  
 234   19:50    0.0    63   88.3     8    342.6    10.2    999.0   0.00  
 234   20:00    0.0    63   88.4     8    345.6    11.3    999.0   0.00  
 234   20:10    0.0    63   88.5    10    344.3    12.5    999.0   0.00  
 234   20:20    0.0    62   88.4    10    349.3    12.5    999.0   0.00  
 234   20:30    0.0    62   88.4     9    354.3    11.9    999.0   0.00  
 234   20:40    0.0    62   88.3     8    346.0    10.2    999.0   0.00  
 234   20:50    0.0    62   88.2     9    353.2    11.9    999.0   0.00  
 234   21:00    0.0    62   88.1    11    346.5    14.3    999.0   0.00  
 234   21:10    0.0    62   88.2     8    352.7    11.9    999.0   0.00  
 234   21:20    0.0    62   88.3     6    355.5     7.2    999.0   0.00  
 234   21:30    0.0    62   88.4     5    345.6     6.6    999.0   0.00  
 234   21:40    0.0    61   88.4     6    339.8     7.8    999.0   0.00  
 234   21:50    0.0    61   88.6     6    337.6     7.2    999.0   0.00  
 234   22:00    0.0    62   88.6     6    341.5     7.2    999.0   0.00  
 234   22:10    0.0    62   88.7     6    339.6     7.2    999.0   0.00  
 234   22:20    0.0    62   88.8     5    345.1     6.6    999.0   0.00  
 234   22:30    0.0    62   88.9     5    338.2     6.0    999.0   0.00  
 234   22:40    0.0    61   88.9     5    342.1     6.0    999.0   0.00  
 234   22:50    0.0    61   88.9     4    337.9     6.0    999.0   0.00  
 234   23:00    0.0    61   88.9     4    340.2     5.4    999.0   0.00  
 234   23:10    0.0    61   89.0     2    329.5     4.2    999.0   0.00  
 234   23:20    0.0    61   88.9     3    332.4     4.2    999.0   0.00  
 234   23:30    0.0    61   89.0     4    349.6     4.8    999.0   0.00  
 234   23:40    0.0    62   89.1     4    348.9     4.8    999.0   0.00  
 234   23:50    0.0    62   89.1     3    339.0     4.2    999.0   0.00  
 235    0:00    0.0    62   89.1     2    340.0     4.2    999.0   0.00  
 235    0:10    0.0    62   89.0     1    332.6     2.4    999.0   0.00  
 235    0:20    0.0    62   89.0     1      2.4     3.6    999.0   0.00  
 235    0:30    0.0    62   88.9     2    330.6     2.4    999.0   0.00  
 235    0:40    0.0    62   88.9     1    359.5     2.4    999.0   0.00  
 235    0:50    0.0    63   88.7     1     22.7     2.4    999.0   0.00  
 235    1:00    0.0    63   88.7     1    191.1     3.0    999.0   0.00  
 235    1:10    0.0    63   88.4     2    154.6     5.4    999.0   0.00  

Return to Cactus Peak graphs page.


Western Regional Climate Center,wrcc@dri.edu